Aitkin, MN

6:08 PM CDT on May 26, 2017 (GMT -0500)
Aitkin Municipal / Steve Kurtz Field

Weather History for KAIT - January, 2014

Change the Weather History Date:

Saturday, January 25, 2014

  Actual Average Record
Temperature  
Mean Temperature 5 °F -  
Max Temperature 10 °F 22 °F 53 °F (1973)
Min Temperature 0 °F -2 °F -30 °F (1966)
Degree Days  
Heating Degree Days 60    
Moisture  
Dew Point -13 °F    
Average Humidity 47    
Maximum Humidity 72    
Minimum Humidity 26    
Precipitation  
Precipitation 0.00 in - - ()
Sea Level Pressure  
Sea Level Pressure 29.70 in    
Wind  
Wind Speed 9 mph (WNW)    
Max Wind Speed 17 mph    
Max Gust Speed 28 mph    
Visibility 9 miles    
Events Snow    
Averages and records for this station are not official NWS values.
T = Trace of Precipitation, MM = Missing Value Source: NWS Daily Summary

Daily Weather History Graph

Daily Weather History Graph

Search for Another Location

Airport or City:

Trip Planner

Search our weather history database for the weather conditions in past years. The results will help you decide how hot, cold, wet, or windy it might be!

Date:

Astronomy

Jan. 25, 2014 Rise Set
Actual Time 7:46 AM CST 5:08 PM CST
Civil Twilight 7:13 AM CST 5:41 PM CST
Nautical Twilight 6:36 AM CST 6:18 PM CST
Astronomical Twilight 6:00 AM CST 6:53 PM CST
Moon 2:17 AM CST (1/25) 12:09 PM CST (1/25)
Length of Visible Light 10h 27m
Length of Day
9h 22m
Waning Crescent, 34% of the Moon is Illuminated
Jan 25
Waning Crescent
Jan 30
New
Feb 6
First Quarter
Feb 14
Full
Feb 22
Last Quarter

Hourly Weather History & Observations

Time (CST) Temp. Windchill Dew Point Humidity Pressure Visibility Wind Dir Wind Speed Gust Speed Precip Events Conditions
12:13 AM 10.4 °F -4.8 °F -7.6 °F 44% 29.58 in 10.0 mi NW 12.7 mph 27.6 mph N/A   Clear
12:33 AM 8.6 °F -8.3 °F -7.6 °F 48% 29.60 in 10.0 mi NW 15.0 mph 24.2 mph N/A   Clear
12:52 AM 8.6 °F -7.0 °F -7.6 °F 48% 29.61 in 10.0 mi NW 12.7 mph 23.0 mph N/A   Clear
1:13 AM 8.6 °F -9.5 °F -7.6 °F 48% 29.62 in 10.0 mi NW 17.3 mph 26.5 mph N/A   Clear
1:33 AM 6.8 °F -6.9 °F -7.6 °F 52% 29.63 in 10.0 mi NW 9.2 mph 20.7 mph N/A   Clear
1:52 AM 6.8 °F -8.6 °F -11.2 °F 44% 29.64 in 10.0 mi NW 11.5 mph 26.5 mph N/A   Clear
2:13 AM 5.0 °F -6.9 °F -11.2 °F 47% 29.65 in 10.0 mi NW 6.9 mph - N/A   Clear
2:33 AM 5.0 °F -13.0 °F -9.4 °F 52% 29.65 in 10.0 mi NW 15.0 mph 27.6 mph N/A   Clear
2:52 AM 5.0 °F -10.0 °F -9.4 °F 52% 29.66 in 10.0 mi NW 10.4 mph 23.0 mph N/A   Clear
3:13 AM 3.2 °F -13.1 °F -11.2 °F 51% 29.68 in 10.0 mi NW 11.5 mph 21.9 mph N/A   Clear
3:33 AM 3.2 °F -11.3 °F -11.2 °F 51% 29.68 in 10.0 mi NW 9.2 mph 17.3 mph N/A   Clear
3:52 AM 3.2 °F -12.2 °F -9.4 °F 56% 29.69 in 10.0 mi NW 10.4 mph 19.6 mph N/A   Clear
4:13 AM 3.2 °F -10.3 °F -11.2 °F 51% 29.69 in 10.0 mi NW 8.1 mph 20.7 mph N/A   Clear
4:33 AM 1.4 °F -16.1 °F -11.2 °F 56% 29.70 in 10.0 mi NW 12.7 mph 20.7 mph N/A   Clear
4:52 AM 1.4 °F -15.3 °F -11.2 °F 56% 29.71 in 10.0 mi NW 11.5 mph 18.4 mph N/A   Clear
5:13 AM 1.4 °F -14.5 °F -11.2 °F 56% 29.72 in 10.0 mi WNW 10.4 mph 16.1 mph N/A   Clear
5:32 AM 1.4 °F -13.5 °F -11.2 °F 56% 29.73 in 10.0 mi WNW 9.2 mph 23.0 mph N/A   Clear
5:53 AM 1.4 °F -15.3 °F -11.2 °F 56% 29.73 in 10.0 mi NW 11.5 mph 18.4 mph N/A   Clear
6:13 AM -0.4 °F -16.7 °F -11.2 °F 60% 29.73 in 10.0 mi WNW 10.4 mph 16.1 mph N/A   Clear
6:32 AM -0.4 °F -15.7 °F -11.2 °F 60% 29.74 in 10.0 mi WNW 9.2 mph - N/A   Clear
6:53 AM -0.4 °F -15.7 °F -11.2 °F 60% 29.76 in 10.0 mi WNW 9.2 mph 18.4 mph N/A   Clear
7:13 AM -0.4 °F -15.7 °F -13.0 °F 55% 29.77 in 10.0 mi WNW 9.2 mph 19.6 mph N/A   Clear
7:33 AM -0.4 °F -16.7 °F -13.0 °F 55% 29.77 in 10.0 mi WNW 10.4 mph 19.6 mph N/A   Clear
7:53 AM -0.4 °F -14.7 °F -14.8 °F 51% 29.78 in 10.0 mi WNW 8.1 mph - N/A   Clear
8:13 AM -0.4 °F -13.4 °F -14.8 °F 51% 29.79 in 10.0 mi WNW 6.9 mph 16.1 mph N/A   Clear
8:33 AM -0.4 °F -13.4 °F -14.8 °F 51% 29.79 in 10.0 mi WNW 6.9 mph 17.3 mph N/A   Clear
8:53 AM -0.4 °F -16.7 °F -14.8 °F 51% 29.80 in 10.0 mi WNW 10.4 mph 16.1 mph N/A   Clear
9:13 AM -0.4 °F -16.7 °F -14.8 °F 51% 29.80 in 10.0 mi NW 10.4 mph 17.3 mph N/A   Clear
9:33 AM -0.4 °F -14.7 °F -14.8 °F 51% 29.80 in 10.0 mi NW 8.1 mph 17.3 mph N/A   Clear
9:53 AM 1.4 °F -13.5 °F -14.8 °F 47% 29.81 in 10.0 mi NW 9.2 mph 19.6 mph N/A   Clear
10:13 AM 1.4 °F -15.3 °F -16.6 °F 43% 29.82 in 10.0 mi NW 11.5 mph 17.3 mph N/A   Clear
10:33 AM 1.4 °F -11.3 °F -16.6 °F 43% 29.81 in 10.0 mi WNW 6.9 mph 18.4 mph N/A   Clear
10:52 AM 1.4 °F -13.5 °F -16.6 °F 43% 29.82 in 10.0 mi NW 9.2 mph 19.6 mph N/A   Clear
11:13 AM 3.2 °F -9.1 °F -16.6 °F 39% 29.82 in 10.0 mi WNW 6.9 mph - N/A   Clear
11:33 AM 3.2 °F -12.2 °F -16.6 °F 39% 29.82 in 10.0 mi WNW 10.4 mph 17.3 mph N/A   Clear
11:52 AM 3.2 °F -11.3 °F -16.6 °F 39% 29.81 in 10.0 mi WNW 9.2 mph - N/A   Clear
12:13 PM 5.0 °F -10.0 °F -18.4 °F 33% 29.81 in 10.0 mi WNW 10.4 mph 17.3 mph N/A   Clear
12:32 PM 5.0 °F -10.0 °F -18.4 °F 33% 29.80 in 10.0 mi WNW 10.4 mph 17.3 mph N/A   Clear
12:53 PM 5.0 °F -8.1 °F -18.4 °F 33% 29.80 in 10.0 mi WNW 8.1 mph 17.3 mph N/A   Clear
1:13 PM 6.8 °F -4.8 °F -18.4 °F 31% 29.78 in 10.0 mi NW 6.9 mph - N/A   Clear
1:33 PM 6.8 °F -4.8 °F -18.4 °F 31% 29.77 in 10.0 mi WNW 6.9 mph 16.1 mph N/A   Clear
1:53 PM 6.8 °F -5.9 °F -20.2 °F 28% 29.76 in 10.0 mi NW 8.1 mph - N/A   Clear
2:13 PM 6.8 °F -2.0 °F -18.4 °F 31% 29.76 in 10.0 mi NW 4.6 mph - N/A   Clear
2:32 PM 8.6 °F -1.3 °F -20.2 °F 26% 29.75 in 10.0 mi WNW 5.8 mph - N/A   Clear
2:53 PM 6.8 °F -6.9 °F -20.2 °F 28% 29.75 in 10.0 mi WNW 9.2 mph - N/A   Clear
3:13 PM 6.8 °F -3.5 °F -20.2 °F 28% 29.75 in 10.0 mi NW 5.8 mph - N/A   Clear
3:32 PM 6.8 °F -3.5 °F -20.2 °F 28% 29.75 in 10.0 mi WNW 5.8 mph - N/A   Clear
3:53 PM 6.8 °F -2.0 °F -20.2 °F 28% 29.74 in 10.0 mi West 4.6 mph - N/A   Clear
4:13 PM 6.8 °F -0.1 °F -22.0 °F 26% 29.74 in 10.0 mi West 3.5 mph - N/A   Clear
4:32 PM 8.6 °F 0.1 °F -20.2 °F 26% 29.73 in 10.0 mi West 4.6 mph - N/A   Clear
4:53 PM 6.8 °F - -20.2 °F 28% 29.70 in 10.0 mi Calm Calm - N/A   Clear
5:13 PM 6.8 °F -0.1 °F -18.4 °F 31% 29.71 in 10.0 mi WSW 3.5 mph - N/A   Clear
5:33 PM 5.0 °F -4.1 °F -16.6 °F 36% 29.71 in 10.0 mi WSW 4.6 mph - N/A   Clear
5:53 PM 5.0 °F -5.6 °F -16.6 °F 36% 29.68 in 10.0 mi SW 5.8 mph - N/A   Clear
6:12 PM 5.0 °F -2.1 °F -16.6 °F 36% 29.66 in 10.0 mi WSW 3.5 mph - N/A   Clear
6:33 PM 5.0 °F -4.1 °F -14.8 °F 40% 29.67 in 10.0 mi WSW 4.6 mph - N/A   Scattered Clouds
6:53 PM 5.0 °F -4.1 °F -14.8 °F 40% 29.65 in 10.0 mi SW 4.6 mph - N/A   Mostly Cloudy
7:12 PM 5.0 °F -4.1 °F -13.0 °F 43% 29.65 in 10.0 mi SW 4.6 mph - N/A   Overcast
7:33 PM 5.0 °F -5.6 °F -13.0 °F 43% 29.63 in 10.0 mi SSW 5.8 mph - N/A   Overcast
7:53 PM 5.0 °F -5.6 °F -13.0 °F 43% 29.63 in 10.0 mi SSW 5.8 mph - N/A   Overcast
8:12 PM 3.2 °F -7.8 °F -11.2 °F 51% 29.61 in 10.0 mi SSW 5.8 mph - N/A   Overcast
8:33 PM 3.2 °F -10.3 °F -11.2 °F 51% 29.59 in 10.0 mi SSW 8.1 mph - N/A   Overcast
8:53 PM 3.2 °F -7.8 °F -11.2 °F 51% 29.59 in 10.0 mi SSW 5.8 mph - N/A   Overcast
9:12 PM 3.2 °F -7.8 °F -11.2 °F 51% 29.58 in 10.0 mi SW 5.8 mph - N/A Snow Light Snow
9:33 PM 3.2 °F -6.2 °F -7.6 °F 61% 29.56 in 5.0 mi SSW 4.6 mph - N/A Snow Light Snow
9:53 PM 3.2 °F - -5.8 °F 66% 29.55 in 2.5 mi Calm Calm - N/A Snow Light Snow
10:12 PM 3.2 °F - -5.8 °F 66% 29.54 in 2.5 mi Calm Calm - N/A Snow Light Snow
10:33 PM 3.2 °F - -4.0 °F 72% 29.52 in 1.5 mi Calm Calm - N/A Snow Light Snow
10:52 PM 3.2 °F - -4.0 °F 72% 29.52 in 2.5 mi Calm Calm - N/A Snow Light Snow
11:13 PM 3.2 °F - -4.0 °F 72% 29.51 in 2.5 mi Calm Calm - N/A Snow Light Snow
11:33 PM 3.2 °F - -4.0 °F 72% 29.49 in 2.0 mi Calm Calm - N/A Snow Light Snow
11:53 PM 3.2 °F - -4.0 °F 72% 29.47 in 2.0 mi Calm Calm - N/A Snow Light Snow